TimeCDT,TemperatureF,Dew PointF,Humidity,Sea Level PressureIn,VisibilityMPH,Wind Direction,Wind SpeedMPH,Gust SpeedMPH,PrecipitationIn,Events,Conditions,WindDirDegrees,DateUTC
12:23 AM,59.0,57.2,94,29.89,2.5,Calm,Calm,-,N/A,,Partly Cloudy,0,2013-06-16 05:23:00
12:28 AM,57.2,57.2,100,29.88,1.0,Calm,Calm,-,N/A,,Mist,0,2013-06-16 05:28:00
12:35 AM,57.2,57.2,100,29.88,0.5,Calm,Calm,-,N/A,Fog,Fog,0,2013-06-16 05:35:00
12:44 AM,57.2,57.2,100,29.88,1.2,Calm,Calm,-,N/A,,Partly Cloudy,0,2013-06-16 05:44:00
12:54 AM,59.0,57.0,93,29.88,2.0,Calm,Calm,-,N/A,,Clear,0,2013-06-16 05:54:00
1:03 AM,59.0,57.2,94,29.88,6.0,WNW,3.5,-,N/A,,Clear,290,2013-06-16 06:03:00
1:54 AM,57.0,57.0,100,29.86,6.0,Calm,Calm,-,N/A,,Clear,0,2013-06-16 06:54:00
2:09 AM,57.2,55.4,94,29.87,1.8,Calm,Calm,-,N/A,,Clear,0,2013-06-16 07:09:00
2:19 AM,57.2,57.2,100,29.87,3.0,Calm,Calm,-,N/A,,Clear,0,2013-06-16 07:19:00
2:54 AM,57.0,57.0,100,29.86,7.0,WSW,5.8,-,N/A,,Clear,250,2013-06-16 07:54:00
3:54 AM,55.9,55.9,100,29.86,6.0,WSW,5.8,-,N/A,,Clear,250,2013-06-16 08:54:00
4:54 AM,55.9,55.0,97,29.87,6.0,West,4.6,-,N/A,,Clear,280,2013-06-16 09:54:00
5:54 AM,55.9,55.9,100,29.88,4.0,West,4.6,-,N/A,,Clear,260,2013-06-16 10:54:00
6:54 AM,60.1,59.0,96,29.89,5.0,WSW,6.9,-,N/A,,Clear,250,2013-06-16 11:54:00
7:54 AM,64.0,60.1,87,29.90,10.0,West,8.1,-,N/A,,Clear,280,2013-06-16 12:54:00
8:54 AM,68.0,60.1,76,29.90,10.0,NW,10.4,-,N/A,,Clear,310,2013-06-16 13:54:00
9:54 AM,72.0,59.0,64,29.89,10.0,NW,8.1,-,N/A,,Clear,310,2013-06-16 14:54:00
10:54 AM,75.0,57.9,55,29.89,10.0,WNW,8.1,-,N/A,,Clear,290,2013-06-16 15:54:00
11:54 AM,77.0,55.9,48,29.90,10.0,NW,11.5,-,N/A,,Clear,310,2013-06-16 16:54:00
12:54 PM,77.0,54.0,45,29.89,10.0,WNW,12.7,18.4,N/A,,Scattered Clouds,300,2013-06-16 17:54:00
1:54 PM,79.0,53.1,40,29.89,10.0,NW,17.3,-,N/A,,Clear,310,2013-06-16 18:54:00
2:54 PM,78.1,51.1,39,29.89,10.0,WNW,13.8,19.6,N/A,,Clear,300,2013-06-16 19:54:00
3:54 PM,79.0,48.9,35,29.89,10.0,WNW,13.8,-,N/A,,Clear,290,2013-06-16 20:54:00
4:54 PM,78.1,51.1,39,29.88,10.0,West,11.5,18.4,N/A,,Clear,270,2013-06-16 21:54:00
5:54 PM,78.1,51.1,39,29.86,10.0,West,9.2,17.3,N/A,,Clear,270,2013-06-16 22:54:00
6:54 PM,77.0,52.0,42,29.87,10.0,West,8.1,-,N/A,,Clear,260,2013-06-16 23:54:00
7:54 PM,75.0,54.0,48,29.86,10.0,SW,5.8,-,N/A,,Clear,230,2013-06-17 00:54:00
8:54 PM,66.9,55.9,68,29.86,10.0,SW,4.6,-,N/A,,Clear,220,2013-06-17 01:54:00
9:54 PM,64.0,55.0,73,29.86,10.0,SW,4.6,-,N/A,,Clear,220,2013-06-17 02:54:00
10:54 PM,68.0,52.0,56,29.88,10.0,NE,10.4,-,N/A,,Mostly Cloudy,40,2013-06-17 03:54:00
11:54 PM,62.1,53.1,72,29.88,10.0,ESE,3.5,-,N/A,,Clear,110,2013-06-17 04:54:00